TimeEST,TemperatureF,Dew PointF,Humidity,Sea Level PressureIn,VisibilityMPH,Wind Direction,Wind SpeedMPH,Gust SpeedMPH,PrecipitationIn,Events,Conditions,WindDirDegrees,DateUTC
12:15 AM,53.4,53.4,100,30.17,2.5,North,3.5,-,N/A,,Overcast,360,2013-01-12 05:15:00
12:35 AM,53.1,53.1,100,30.16,1.5,Calm,Calm,-,N/A,,Overcast,0,2013-01-12 05:35:00
12:55 AM,52.9,52.9,100,30.16,0.5,Calm,Calm,-,N/A,Fog,Fog,0,2013-01-12 05:55:00
1:15 AM,52.5,52.5,100,30.16,0.2,Calm,Calm,-,N/A,Fog,Fog,0,2013-01-12 06:15:00
1:35 AM,52.2,52.2,100,30.17,0.8,North,3.5,-,N/A,,Overcast,350,2013-01-12 06:35:00
1:55 AM,52.0,52.0,100,30.16,0.5,Calm,Calm,-,N/A,Fog,Fog,0,2013-01-12 06:55:00
2:35 AM,51.3,51.3,100,30.16,0.5,Calm,Calm,-,N/A,Fog,Fog,0,2013-01-12 07:35:00
2:55 AM,50.9,50.9,100,30.17,1.5,Calm,Calm,-,N/A,,Mist,0,2013-01-12 07:55:00
3:15 AM,50.9,50.9,100,30.16,0.2,Calm,Calm,-,N/A,Fog,Fog,0,2013-01-12 08:15:00
3:35 AM,50.2,50.2,100,30.15,0.5,Calm,Calm,-,N/A,Fog,Fog,0,2013-01-12 08:35:00
3:55 AM,50.0,50.0,100,30.15,1.0,Calm,Calm,-,N/A,,Overcast,0,2013-01-12 08:55:00
4:15 AM,49.6,49.6,100,30.15,4.0,Calm,Calm,-,N/A,,Overcast,0,2013-01-12 09:15:00
4:35 AM,50.4,50.4,100,30.14,1.0,Calm,Calm,-,N/A,,Overcast,0,2013-01-12 09:35:00
4:55 AM,50.7,50.7,100,30.13,0.2,Calm,Calm,-,N/A,Fog,Fog,0,2013-01-12 09:55:00
5:15 AM,51.3,51.3,100,30.14,0.2,Calm,Calm,-,N/A,Fog,Fog,0,2013-01-12 10:15:00
5:35 AM,51.4,51.4,100,30.13,0.2,Calm,Calm,-,N/A,Fog,Fog,0,2013-01-12 10:35:00
5:55 AM,51.8,51.8,100,30.13,0.2,Calm,Calm,-,N/A,Fog,Fog,0,2013-01-12 10:55:00
6:15 AM,51.8,51.8,100,30.14,0.2,Calm,Calm,-,N/A,Fog,Fog,0,2013-01-12 11:15:00
6:35 AM,52.2,52.2,100,30.15,0.5,Calm,Calm,-,N/A,Fog,Fog,0,2013-01-12 11:35:00
6:55 AM,52.2,52.2,100,30.16,0.5,Calm,Calm,-,N/A,Fog,Fog,0,2013-01-12 11:55:00
7:15 AM,52.0,52.0,100,30.16,0.5,Calm,Calm,-,N/A,Fog,Fog,0,2013-01-12 12:15:00
7:35 AM,52.0,52.0,100,30.16,0.2,Calm,Calm,-,N/A,Fog,Fog,0,2013-01-12 12:35:00
7:55 AM,52.2,52.2,100,30.17,0.2,Calm,Calm,-,N/A,Fog,Fog,0,2013-01-12 12:55:00
8:15 AM,52.7,52.7,100,30.18,1.0,Calm,Calm,-,0.01,,Overcast,0,2013-01-12 13:15:00
8:35 AM,53.6,53.6,100,30.18,2.5,Calm,Calm,-,0.01,,Overcast,0,2013-01-12 13:35:00
8:55 AM,54.7,54.7,100,30.18,2.0,Calm,Calm,-,0.01,,Overcast,0,2013-01-12 13:55:00
9:15 AM,56.5,56.5,100,30.18,3.0,SSW,3.5,-,N/A,,Scattered Clouds,200,2013-01-12 14:15:00
9:35 AM,58.5,58.5,100,30.18,4.0,SSW,4.6,-,N/A,,Scattered Clouds,210,2013-01-12 14:35:00
9:55 AM,61.3,61.3,100,30.18,7.0,SW,4.6,-,N/A,,Mostly Cloudy,220,2013-01-12 14:55:00
10:15 AM,63.1,63.1,100,30.18,10.0,SW,6.9,-,N/A,,Mostly Cloudy,230,2013-01-12 15:15:00
10:35 AM,63.5,63.5,100,30.18,10.0,WSW,5.8,-,N/A,,Mostly Cloudy,240,2013-01-12 15:35:00
10:55 AM,65.7,65.7,100,30.17,10.0,WSW,5.8,-,N/A,,Scattered Clouds,240,2013-01-12 15:55:00
11:15 AM,67.8,64.6,89,30.16,10.0,WSW,5.8,-,N/A,,Scattered Clouds,240,2013-01-12 16:15:00
11:35 AM,69.1,63.7,83,30.16,10.0,WSW,9.2,-,N/A,,Clear,250,2013-01-12 16:35:00
11:55 AM,70.5,63.5,78,30.15,10.0,West,5.8,-,N/A,,Clear,260,2013-01-12 16:55:00
12:15 PM,72.5,63.3,73,30.14,10.0,West,8.1,-,N/A,,Scattered Clouds,260,2013-01-12 17:15:00
12:35 PM,73.2,63.5,71,30.13,10.0,WSW,6.9,-,N/A,,Scattered Clouds,240,2013-01-12 17:35:00
12:55 PM,73.6,63.0,69,30.13,10.0,WSW,8.1,-,N/A,,Scattered Clouds,250,2013-01-12 17:55:00
1:15 PM,74.1,63.7,70,30.12,10.0,West,3.5,-,N/A,,Clear,260,2013-01-12 18:15:00
1:35 PM,77.0,61.7,59,30.12,10.0,WSW,11.5,-,N/A,,Clear,240,2013-01-12 18:35:00
1:55 PM,76.8,61.2,58,30.11,10.0,SW,10.4,-,N/A,,Clear,230,2013-01-12 18:55:00
2:15 PM,76.5,60.8,58,30.11,10.0,WSW,8.1,-,N/A,,Clear,250,2013-01-12 19:15:00
2:35 PM,75.6,61.7,62,30.11,10.0,SSW,9.2,-,N/A,,Clear,210,2013-01-12 19:35:00
2:55 PM,75.2,61.7,63,30.12,10.0,SW,8.1,-,N/A,,Clear,220,2013-01-12 19:55:00
3:15 PM,75.2,61.9,63,30.12,10.0,SW,4.6,-,N/A,,Clear,230,2013-01-12 20:15:00
3:35 PM,75.2,61.7,63,30.12,10.0,SW,5.8,-,N/A,,Clear,230,2013-01-12 20:35:00
3:55 PM,75.7,61.9,62,30.12,10.0,SW,3.5,-,N/A,,Clear,230,2013-01-12 20:55:00
4:15 PM,75.6,62.1,63,30.12,10.0,SSW,3.5,-,N/A,,Clear,210,2013-01-12 21:15:00
4:35 PM,75.4,61.3,62,30.12,10.0,WSW,4.6,-,N/A,,Clear,240,2013-01-12 21:35:00
4:55 PM,74.5,62.1,65,30.11,10.0,Calm,Calm,-,N/A,,Clear,0,2013-01-12 21:55:00
5:15 PM,71.8,62.4,72,30.11,10.0,Calm,Calm,-,N/A,,Clear,0,2013-01-12 22:15:00
5:35 PM,70.3,62.6,76,30.11,10.0,Calm,Calm,-,N/A,,Clear,0,2013-01-12 22:35:00
5:55 PM,69.8,62.6,78,30.11,10.0,Calm,Calm,-,N/A,,Clear,0,2013-01-12 22:55:00
6:15 PM,67.1,63.0,87,30.11,10.0,Calm,Calm,-,N/A,,Clear,0,2013-01-12 23:15:00
6:35 PM,68.0,62.6,83,30.11,10.0,SW,3.5,-,N/A,,Clear,220,2013-01-12 23:35:00
6:55 PM,65.3,62.2,90,30.11,10.0,SSW,3.5,-,N/A,,Clear,200,2013-01-12 23:55:00
7:15 PM,66.4,61.5,84,30.11,10.0,South,3.5,-,N/A,,Clear,180,2013-01-13 00:15:00
7:35 PM,66.2,61.0,83,30.11,10.0,South,3.5,-,N/A,,Clear,180,2013-01-13 00:35:00
8:15 PM,65.8,61.0,84,30.11,10.0,SSW,4.6,-,N/A,,Clear,210,2013-01-13 01:15:00
8:35 PM,62.8,60.3,91,30.11,10.0,Calm,Calm,-,N/A,,Clear,0,2013-01-13 01:35:00
8:55 PM,65.3,60.8,85,30.11,10.0,Calm,Calm,-,N/A,,Clear,0,2013-01-13 01:55:00
9:15 PM,64.8,60.3,85,30.11,10.0,Calm,Calm,-,N/A,,Clear,0,2013-01-13 02:15:00
9:35 PM,63.5,60.4,90,30.11,10.0,Calm,Calm,-,N/A,,Clear,0,2013-01-13 02:35:00
9:55 PM,62.6,60.3,92,30.11,10.0,South,4.6,-,N/A,,Clear,180,2013-01-13 02:55:00
10:15 PM,63.9,60.3,88,30.11,10.0,Calm,Calm,-,N/A,,Clear,0,2013-01-13 03:15:00
10:35 PM,63.7,60.1,88,30.12,10.0,Calm,Calm,-,N/A,,Clear,0,2013-01-13 03:35:00
10:55 PM,63.3,60.3,90,30.12,10.0,South,4.6,-,N/A,,Clear,180,2013-01-13 03:55:00
11:15 PM,63.5,59.9,88,30.11,10.0,South,3.5,-,N/A,,Clear,180,2013-01-13 04:15:00
11:35 PM,63.3,59.9,89,30.11,10.0,South,3.5,-,N/A,,Clear,180,2013-01-13 04:35:00
11:55 PM,63.5,59.9,88,30.11,10.0,SSW,4.6,-,N/A,,Clear,200,2013-01-13 04:55:00